Regional Weather Roundup
Issued by NWS

Home | Current Version | Previous Version | Text Only | Print | Product List | Glossary Off
Versions: 1 2 3 4 5 6 7 8 9 10 11 12 13 14 15 16 17 18 19 20 21 22 23 24 25 26 27 28 29 30 31 32 33 34 35 36 37 38 39 40 41 42 43 44 45 46 47 48 49 50

471
ASUS43 KBIS 301510
RWRND

NORTH DAKOTA REGIONAL WEATHER ROUNDUP
NATIONAL WEATHER SERVICE BISMARCK ND
1000 AM CDT THU MAR 30 2017

NOTE: "FAIR" INDICATES FEW OR NO CLOUDS BELOW 12,000 FEET WITH NO
SIGNIFICANT WEATHER AND/OR OBSTRUCTIONS TO VISIBILITY.


NDZ001>003-009>011-017-301600-
NORTHWEST NORTH DAKOTA

CITY           SKY/WX    TMP DP  RH WIND       PRES   REMARKS
WILLISTON      CLOUDY    48  37  65 CALM      29.71S
MINOT          CLOUDY    47  36  65 S14       29.75S
$$

NDZ018>021-031>035-040>046-301600-
SOUTHWEST NORTH DAKOTA

CITY           SKY/WX    TMP DP  RH WIND       PRES   REMARKS
BISMARCK       FAIR      42  35  76 S13       29.85S
DICKINSON      CLOUDY    43  37  79 SE10      29.72S
GARRISON         N/A     42  34  73 S10       29.78S
HETTINGER ARPT CLOUDY    41  35  79 SE13      29.76F
$$

NDZ004>008-012>016-024-026-027-054-301600-
NORTHEAST NORTH DAKOTA

CITY           SKY/WX    TMP DP  RH WIND       PRES   REMARKS
GRAND FORKS    MOSUNNY   45  39  79 S15G22    29.92F
GRND FRKS AFB  PTSUNNY   46  37  69 S20       29.91F
DEVILS LAKE    PTSUNNY   43  36  76 S15G25    29.86F
$$

NDZ022-023-025-028>030-036>039-047>053-301600-
SOUTHEAST NORTH DAKOTA

CITY           SKY/WX    TMP DP  RH WIND       PRES   REMARKS
FARGO          SUNNY     43  39  86 SE6       29.93F
JAMESTOWN      CLOUDY    38  36  92 S14       29.89S
$$





USA.gov is the U.S. government's official web portal to all federal, state and local government web resources and services.